Location: Campillo
(40.8621°N, 4.2488°W)
Time: 22:48:40
(UTC+00:00)

USA 306 - Pass Details

Date: 02 October 2021
Orbit: 564 x 573 km, 54.0° (Epoch: 24 September)

Event Time Altitude Azimuth Distance (km) Brightness Sun altitude
Rises 19:19:40 0° 310° (NW) 2,761 7.4 -16.4°
Reaches altitude 10° 19:21:55 10° 311° (NW) 1,862 6.4 -16.8°
Maximum altitude 19:26:10 87° 41° (NE) 571 2.8 -17.6°
Enters shadow 19:27:49 36° 128° (SE) 899 3.4 -17.9°
